Change the Weather History Date:

Thursday, January 17, 2013

  Actual Average Record
Temperature  
Mean Temperature 56 °F 50 °F  
Max Temperature 70 °F 62 °F 79 °F (1949)
Min Temperature 42 °F 40 °F 16 °F (1959)
Degree Days  
Heating Degree Days 9 15  
Month to date heating degree days 106 255  
Since 1 July heating degree days 700 895  
Cooling Degree Days 0 0  
Month to date cooling degree days 19 0  
Year to date cooling degree days 19 0  
Growing Degree Days 6 (Base 50)    
Moisture  
Dew Point 50 °F    
Average Humidity 72    
Maximum Humidity 97    
Minimum Humidity 47    
Precipitation  
Precipitation 0.01 in 0.13 in 1.78 in (1964)
Month to date precipitation 0.19 2.24  
Year to date precipitation 0.19 2.24  
Snow  
Snow 0.00 in 0.00 in 0.00 in ()
Month to date snowfall 0.0 0.0  
Since 1 July snowfall 0.0 0.1  
Snow Depth 0.00 in    
Sea Level Pressure  
Sea Level Pressure 29.96 in    
Wind  
Wind Speed 11 mph (SW)    
Max Wind Speed 25 mph    
Max Gust Speed 35 mph    
Visibility 8 miles    
Events Rain    
T = Trace of Precipitation, MM = Missing Value Source: NWS Daily Summary

Daily Weather History Graph

Daily Weather History Graph

Search for Another Location

Airport or City:

Trip Planner

Search our weather history database for the weather conditions in past years. The results will help you decide how hot, cold, wet, or windy it might be!

Date:

Astronomy

Jan. 17, 2013 Rise Set
Actual Time 7:29 AM EST 5:51 PM EST
Civil Twilight 7:03 AM EST 6:17 PM EST
Nautical Twilight 6:33 AM EST 6:47 PM EST
Astronomical Twilight 6:04 AM EST 7:16 PM EST
Moon 11:03 AM EST (1/17) No Moon Set
Length of Visible Light 11h 14m
Length of Day
10h 22m
Waxing Crescent, 37% of the Moon is Illuminated
Jan 17
Waxing Crescent
Jan 18
First Quarter
Jan 26
Full
Feb 3
Last Quarter
Feb 10
New

Hourly Weather History & Observations

Time (EST) Temp. Windchill Dew Point Humidity Pressure Visibility Wind Dir Wind Speed Gust Speed Precip Events Conditions
12:53 AM 63.0 °F - 59.0 °F 87% 29.98 in 10.0 mi South 4.6 mph - N/A   Clear
2:53 AM 63.0 °F - 60.1 °F 90% 29.96 in 10.0 mi South 3.5 mph - N/A   Clear
3:53 AM 63.0 °F - 59.0 °F 87% 29.95 in 10.0 mi South 3.5 mph - N/A   Partly Cloudy
4:53 AM 61.0 °F - 59.0 °F 93% 29.94 in 10.0 mi Calm Calm - N/A   Mostly Cloudy
5:53 AM 63.0 °F - 59.0 °F 87% 29.93 in 10.0 mi South 6.9 mph - N/A   Overcast
6:53 AM 64.0 °F - 59.0 °F 84% 29.92 in 10.0 mi South 4.6 mph - N/A   Overcast
7:07 AM 64.4 °F - 59.0 °F 83% 29.93 in 10.0 mi South 4.6 mph - N/A   Overcast
7:39 AM 64.4 °F - 59.0 °F 83% 29.93 in 10.0 mi South 5.8 mph - N/A   Overcast
7:53 AM 64.0 °F - 59.0 °F 84% 29.93 in 10.0 mi South 4.6 mph - N/A   Overcast
8:18 AM 64.4 °F - 59.0 °F 83% 29.92 in 10.0 mi SSE 4.6 mph - N/A   Overcast
8:33 AM 64.4 °F - 60.8 °F 88% 29.92 in 10.0 mi SSE 6.9 mph - N/A   Overcast
8:40 AM 66.2 °F - 60.8 °F 83% 29.92 in 10.0 mi South 8.1 mph - N/A   Overcast
8:53 AM 66.0 °F - 60.1 °F 81% 29.92 in 10.0 mi South 8.1 mph - N/A   Overcast
9:42 AM 69.8 °F - 62.6 °F 78% 29.92 in 10.0 mi South 10.4 mph - N/A   Overcast
9:53 AM 68.0 °F - 61.0 °F 78% 29.91 in 10.0 mi South 10.4 mph - N/A   Overcast
10:53 AM 69.1 °F - 62.1 °F 78% 29.90 in 10.0 mi SSW 17.3 mph 23.0 mph N/A   Overcast
11:27 AM 60.8 °F - 57.2 °F 88% 29.91 in 5.0 mi WSW 15.0 mph 23.0 mph 0.00 in   Overcast
11:40 AM 60.8 °F - 57.2 °F 88% 29.91 in 5.0 mi WSW 15.0 mph 21.9 mph 0.00 in   Overcast
11:53 AM 59.0 °F - 55.9 °F 90% 29.91 in 2.5 mi WSW 13.8 mph 26.5 mph 0.00 in Rain Light Rain
11:59 AM 59.0 °F - 55.4 °F 88% 29.91 in 2.0 mi WSW 10.4 mph 21.9 mph 0.00 in   Overcast
12:06 PM 57.2 °F - 55.4 °F 94% 29.92 in 1.8 mi West 16.1 mph 24.2 mph 0.00 in   Overcast
12:33 PM 55.4 °F - 53.6 °F 94% 29.91 in 2.5 mi WSW 11.5 mph 23.0 mph 0.01 in   Overcast
12:40 PM 55.4 °F - 53.6 °F 94% 29.91 in 4.0 mi WSW 13.8 mph 23.0 mph 0.01 in   Overcast
12:49 PM 55.4 °F - 51.8 °F 88% 29.91 in 2.5 mi West 18.4 mph 24.2 mph 0.01 in Rain Light Rain
12:53 PM 54.0 °F - 51.1 °F 90% 29.92 in 2.5 mi WSW 15.0 mph 25.3 mph 0.01 in Rain Light Rain
1:14 PM 53.6 °F - 50.0 °F 88% 29.92 in 7.0 mi WSW 16.1 mph 24.2 mph 0.00 in   Overcast
1:53 PM 51.1 °F - 46.0 °F 83% 29.92 in 10.0 mi SW 12.7 mph - 0.00 in   Overcast
2:53 PM 54.0 °F - 45.0 °F 72% 29.90 in 10.0 mi SW 12.7 mph 18.4 mph N/A   Mostly Cloudy
3:53 PM 59.0 °F - 39.0 °F 48% 29.88 in 10.0 mi WSW 17.3 mph 27.6 mph N/A   Scattered Clouds
4:53 PM 53.1 °F - 37.9 °F 57% 29.93 in 10.0 mi West 18.4 mph 27.6 mph N/A   Partly Cloudy
5:53 PM 48.0 °F - 34.0 °F 58% 29.98 in 10.0 mi West 16.1 mph 31.1 mph N/A   Clear
6:53 PM 46.9 °F - 33.1 °F 59% 30.01 in 10.0 mi West 19.6 mph 33.4 mph N/A   Overcast
7:53 PM 44.1 °F 36.8 °F 30.9 °F 60% 30.07 in 10.0 mi WNW 16.1 mph 24.2 mph N/A   Overcast
8:53 PM 43.0 °F 34.8 °F 32.0 °F 65% 30.11 in 10.0 mi West 18.4 mph 28.8 mph N/A   Overcast
9:53 PM 43.0 °F 35.4 °F 32.0 °F 65% 30.14 in 10.0 mi WNW 16.1 mph 20.7 mph N/A   Overcast
10:53 PM 43.0 °F 38.2 °F 32.0 °F 65% 30.15 in 10.0 mi WNW 8.1 mph 16.1 mph N/A   Overcast
11:25 PM 42.8 °F 38.0 °F 32.0 °F 66% 30.16 in 10.0 mi NW 8.1 mph - N/A   Scattered Clouds
11:42 PM 42.8 °F 38.0 °F 33.8 °F 70% 30.16 in 10.0 mi NW 8.1 mph - N/A   Mostly Cloudy
11:53 PM 42.1 °F 37.1 °F 33.1 °F 70% 30.16 in 10.0 mi NW 8.1 mph - N/A   Mostly Cloudy